OMS204 OERK-OOMS

Flight info

Callsign OMS204
Flight time 1h 48m
Altitude 37000
Route RESAL T533 RAPMA DCT KUVSO DCT KATIT DCT MIDGU M717 PUTSO N685 LAKLU G216 MCT
Aircraft A20N/M-SDE2E3FGHIRWXY/LB1

Departure

Time 2026-04-28 10:02
Airport King Khalid International Airport (OERK)

Arrival

Time 2026-04-28 11:50
Airport Muscat International Airport (OOMS)
Time Latitude Longitude Altitude Speed Heading
2026-04-28 09:01 24.94409 46.71203 2034 ft 0 kts 240°
2026-04-28 09:40 24.94409 46.71205 2034 ft 1 kts 240°
2026-04-28 09:40 24.94413 46.71212 2034 ft 1 kts 240°
2026-04-28 09:40 24.94417 46.71219 2041 ft 1 kts 240°
2026-04-28 09:40 24.94420 46.71224 2044 ft 1 kts 240°
2026-04-28 09:41 24.94431 46.71246 2037 ft 7 kts 240°
2026-04-28 09:41 24.94446 46.71274 2037 ft 6 kts 240°
2026-04-28 09:41 24.94468 46.71314 2039 ft 6 kts 224°
2026-04-28 09:41 24.94483 46.71322 2043 ft 0 kts 174°
2026-04-28 09:43 24.94476 46.71323 2043 ft 2 kts 168°
2026-04-28 09:43 24.94452 46.71333 2040 ft 5 kts 153°
2026-04-28 09:44 24.94415 46.71357 2038 ft 7 kts 146°
2026-04-28 09:44 24.94367 46.71393 2035 ft 10 kts 146°
2026-04-28 09:44 24.94305 46.71437 2039 ft 12 kts 148°
2026-04-28 09:44 24.94238 46.71482 2040 ft 9 kts 139°
2026-04-28 09:45 24.94221 46.71552 2037 ft 11 kts 78°
2026-04-28 09:45 24.94241 46.71604 2041 ft 8 kts 62°
2026-04-28 09:45 24.94272 46.71663 2040 ft 10 kts 58°
2026-04-28 09:45 24.94311 46.71736 2039 ft 12 kts 60°
2026-04-28 09:46 24.94357 46.71822 2038 ft 14 kts 59°
2026-04-28 09:46 24.94388 46.71924 2039 ft 15 kts 107°
2026-04-28 09:46 24.94310 46.72004 2038 ft 16 kts 123°
2026-04-28 09:46 24.94329 46.72111 2044 ft 15 kts 60°
2026-04-28 09:47 24.94334 46.72119 2042 ft 0 kts 60°
2026-04-28 09:52 24.94338 46.72128 2046 ft 3 kts 60°
2026-04-28 09:52 24.94341 46.72134 2046 ft 0 kts 60°
2026-04-28 09:58 24.94350 46.72150 2041 ft 5 kts 60°
2026-04-28 09:59 24.94377 46.72194 2038 ft 9 kts 46°
2026-04-28 09:59 24.94441 46.72223 2040 ft 11 kts
2026-04-28 09:59 24.94504 46.72211 2040 ft 0 kts 334°
2026-04-28 10:01 24.94540 46.72190 2038 ft 26 kts 330°
2026-04-28 10:01 24.94905 46.71956 2043 ft 93 kts 329°
2026-04-28 10:01 24.95636 46.71493 2036 ft 147 kts 330°
2026-04-28 10:02 24.96599 46.70872 2378 ft 160 kts 329°
2026-04-28 10:02 24.97563 46.70257 2910 ft 167 kts 328°
2026-04-28 10:02 24.98637 46.69664 3385 ft 175 kts 335°
2026-04-28 10:02 24.99797 46.69208 3905 ft 182 kts 338°
2026-04-28 10:03 25.01066 46.68751 4238 ft 202 kts 339°
2026-04-28 10:03 25.02461 46.68239 4573 ft 221 kts 339°
2026-04-28 10:03 25.03999 46.67651 4820 ft 246 kts 338°
2026-04-28 10:03 25.05690 46.66991 5175 ft 269 kts 338°
2026-04-28 10:04 25.07509 46.66280 5685 ft 283 kts 338°
2026-04-28 10:04 25.09468 46.65852 6357 ft 294 kts 358°
2026-04-28 10:04 25.11502 46.66235 7050 ft 302 kts 18°
2026-04-28 10:04 25.13505 46.67002 7790 ft 306 kts 18°
2026-04-28 10:05 25.15528 46.67777 8553 ft 311 kts 18°
2026-04-28 10:05 25.17478 46.68855 9236 ft 319 kts 39°
2026-04-28 10:05 25.18915 46.70715 9951 ft 322 kts 64°
2026-04-28 10:05 25.19614 46.73079 10372 ft 333 kts 87°
2026-04-28 10:06 25.19623 46.75697 10582 ft 351 kts 98°
2026-04-28 10:06 25.19401 46.78439 10994 ft 363 kts 99°
2026-04-28 10:06 25.19212 46.81238 11673 ft 369 kts 97°
2026-04-28 10:06 25.19107 46.83995 12355 ft 374 kts 96°
2026-04-28 10:07 25.18775 46.86891 13084 ft 373 kts 108°
2026-04-28 10:07 25.17930 46.89580 13791 ft 370 kts 121°
2026-04-28 10:07 25.16701 46.92081 14388 ft 373 kts 124°
2026-04-28 10:07 25.15429 46.94607 14983 ft 379 kts 124°
2026-04-28 10:08 25.14147 46.97164 15571 ft 384 kts 124°
2026-04-28 10:08 25.12841 46.99772 16046 ft 392 kts 124°
2026-04-28 10:08 25.11519 47.02415 16672 ft 395 kts 124°
2026-04-28 10:08 25.10181 47.05088 17264 ft 400 kts 124°
2026-04-28 10:09 25.08824 47.07792 17749 ft 407 kts 123°
2026-04-28 10:09 25.07449 47.10533 18294 ft 411 kts 123°
2026-04-28 10:09 25.06057 47.13307 18780 ft 415 kts 123°
2026-04-28 10:09 25.04656 47.16102 19304 ft 417 kts 124°
2026-04-28 10:10 25.03247 47.18909 19813 ft 421 kts 124°
2026-04-28 10:10 25.01822 47.21745 20264 ft 425 kts 124°
2026-04-28 10:10 25.00381 47.24609 20768 ft 428 kts 124°
2026-04-28 10:10 24.98932 47.27488 21269 ft 431 kts 125°
2026-04-28 10:11 24.97475 47.30382 21747 ft 434 kts 125°
2026-04-28 10:11 24.95999 47.33309 22165 ft 440 kts 125°
2026-04-28 10:11 24.94503 47.36275 22550 ft 445 kts 125°
2026-04-28 10:11 24.92939 47.39212 23034 ft 443 kts 130°
2026-04-28 10:12 24.91086 47.41897 23560 ft 438 kts 138°
2026-04-28 10:12 24.88968 47.44285 23932 ft 436 kts 143°
2026-04-28 10:12 24.86761 47.46589 24321 ft 438 kts 143°
2026-04-28 10:12 24.84552 47.48909 24712 ft 441 kts 143°
2026-04-28 10:13 24.82326 47.51251 25089 ft 444 kts 143°
2026-04-28 10:13 24.80120 47.53573 25423 ft 447 kts 143°
2026-04-28 10:13 24.77858 47.55951 25678 ft 452 kts 143°
2026-04-28 10:13 24.75549 47.58379 26079 ft 454 kts 143°
2026-04-28 10:14 24.73262 47.60784 26437 ft 456 kts 143°
2026-04-28 10:14 24.70964 47.63197 26779 ft 458 kts 143°
2026-04-28 10:14 24.68652 47.65624 27112 ft 461 kts 143°
2026-04-28 10:14 24.66325 47.68065 27435 ft 463 kts 143°
2026-04-28 10:15 24.64022 47.70480 27766 ft 465 kts 143°
2026-04-28 10:15 24.61668 47.72946 27982 ft 470 kts 143°
2026-04-28 10:15 24.59293 47.75432 28290 ft 472 kts 143°
2026-04-28 10:15 24.56838 47.77801 28622 ft 468 kts 150°
2026-04-28 10:16 24.54174 47.79817 28912 ft 462 kts 157°
2026-04-28 10:16 24.51353 47.81454 29184 ft 457 kts 163°
2026-04-28 10:16 24.48429 47.82822 29479 ft 457 kts 165°
2026-04-28 10:16 24.45497 47.84188 29788 ft 459 kts 165°
2026-04-28 10:17 24.42555 47.85566 30038 ft 461 kts 165°
2026-04-28 10:17 24.39596 47.86953 30232 ft 464 kts 165°
2026-04-28 10:17 24.36618 47.88350 30438 ft 467 kts 165°
2026-04-28 10:17 24.33621 47.89755 30637 ft 470 kts 165°
2026-04-28 10:18 24.30608 47.91167 30847 ft 473 kts 165°
2026-04-28 10:18 24.27581 47.92585 31097 ft 474 kts 165°
2026-04-28 10:18 24.24542 47.94009 31353 ft 475 kts 165°
2026-04-28 10:18 24.21499 47.95433 31604 ft 476 kts 165°
2026-04-28 10:19 24.18450 47.96858 31835 ft 477 kts 165°
2026-04-28 10:19 24.15396 47.98286 32072 ft 478 kts 165°
2026-04-28 10:19 24.12333 47.99716 32300 ft 479 kts 165°
2026-04-28 10:19 24.09266 48.01148 32524 ft 480 kts 165°
2026-04-28 10:20 24.06191 48.02582 32742 ft 480 kts 165°
2026-04-28 10:20 24.03113 48.04017 32942 ft 481 kts 165°
2026-04-28 10:20 24.00032 48.05453 33145 ft 482 kts 165°
2026-04-28 10:20 23.96944 48.06891 33339 ft 483 kts 165°
2026-04-28 10:21 23.93848 48.08333 33517 ft 484 kts 165°
2026-04-28 10:21 23.90751 48.09774 33711 ft 485 kts 165°
2026-04-28 10:21 23.87643 48.11219 33877 ft 485 kts 165°
2026-04-28 10:21 23.84540 48.12662 34086 ft 484 kts 165°
2026-04-28 10:22 23.81449 48.14098 34302 ft 482 kts 164°
2026-04-28 10:22 23.78367 48.15529 34518 ft 481 kts 164°
2026-04-28 10:22 23.75287 48.16958 34719 ft 480 kts 164°
2026-04-28 10:22 23.72214 48.18383 34913 ft 479 kts 164°
2026-04-28 10:23 23.69147 48.19805 35113 ft 478 kts 164°
2026-04-28 10:23 23.66085 48.21224 35314 ft 477 kts 164°
2026-04-28 10:23 23.63033 48.22638 35496 ft 476 kts 164°
2026-04-28 10:23 23.59980 48.24050 35666 ft 476 kts 164°
2026-04-28 10:24 23.56938 48.25457 35862 ft 476 kts 164°
2026-04-28 10:24 23.53891 48.26867 36075 ft 475 kts 164°
2026-04-28 10:24 23.50854 48.28271 36285 ft 474 kts 163°
2026-04-28 10:24 23.47842 48.29733 36481 ft 477 kts 158°
2026-04-28 10:25 23.45020 48.31691 36646 ft 485 kts 147°
2026-04-28 10:25 23.42523 48.34204 36757 ft 494 kts 136°
2026-04-28 10:25 23.40455 48.37212 36768 ft 500 kts 124°
2026-04-28 10:25 23.38915 48.40617 36766 ft 506 kts 113°
2026-04-28 10:26 23.37962 48.44318 36768 ft 510 kts 101°
2026-04-28 10:26 23.37631 48.48104 36771 ft 513 kts 93°
2026-04-28 10:26 23.37350 48.55659 36765 ft 513 kts 94°
2026-04-28 10:27 23.37036 48.63463 36761 ft 518 kts 94°
2026-04-28 10:27 23.36708 48.71358 36761 ft 526 kts 94°
2026-04-28 10:28 23.36372 48.79343 36758 ft 531 kts 94°
2026-04-28 10:29 23.35913 48.90087 36750 ft 535 kts 94°
2026-04-28 10:29 23.35565 48.98128 36752 ft 521 kts 94°
2026-04-28 10:29 23.35397 49.02007 36753 ft 506 kts 94°
2026-04-28 10:30 23.35213 49.05806 36754 ft 502 kts 96°
2026-04-28 10:30 23.34210 49.13366 36752 ft 508 kts 101°
2026-04-28 10:31 23.33118 49.20962 36752 ft 508 kts 101°
2026-04-28 10:31 23.32030 49.28561 36752 ft 508 kts 101°
2026-04-28 10:32 23.30935 49.36157 36752 ft 509 kts 101°
2026-04-28 10:32 23.29835 49.43759 36752 ft 508 kts 101°
2026-04-28 10:33 23.28734 49.51325 36752 ft 504 kts 101°
2026-04-28 10:33 23.27633 49.58874 36751 ft 506 kts 101°
2026-04-28 10:34 23.26527 49.66425 36752 ft 506 kts 101°
2026-04-28 10:34 23.25419 49.73969 36752 ft 505 kts 101°
2026-04-28 10:35 23.24314 49.81472 36753 ft 506 kts 101°
2026-04-28 10:35 23.23197 49.89020 36752 ft 506 kts 101°
2026-04-28 10:36 23.22077 49.96570 36754 ft 506 kts 101°
2026-04-28 10:36 23.20956 50.04095 36749 ft 502 kts 101°
2026-04-28 10:37 23.19838 50.11582 36744 ft 502 kts 101°
2026-04-28 10:37 23.18723 50.19017 36745 ft 502 kts 101°
2026-04-28 10:38 23.17588 50.26567 36756 ft 502 kts 101°
2026-04-28 10:38 23.16459 50.34049 36755 ft 502 kts 101°
2026-04-28 10:39 23.15326 50.41537 36744 ft 502 kts 101°
2026-04-28 10:39 23.14188 50.49025 36753 ft 502 kts 101°
2026-04-28 10:40 23.13048 50.56506 36767 ft 502 kts 101°
2026-04-28 10:40 23.11905 50.63983 36758 ft 501 kts 101°
2026-04-28 10:41 23.10761 50.71444 36753 ft 501 kts 101°
2026-04-28 10:41 23.09614 50.78901 36750 ft 501 kts 101°
2026-04-28 10:42 23.08461 50.86369 36755 ft 500 kts 101°
2026-04-28 10:42 23.07307 50.93820 36748 ft 500 kts 101°
2026-04-28 10:43 23.06151 51.01261 36745 ft 500 kts 101°
2026-04-28 10:43 23.04992 51.08702 36733 ft 500 kts 101°
2026-04-28 10:44 23.03830 51.16126 36756 ft 498 kts 101°
2026-04-28 10:44 23.02668 51.23536 36756 ft 498 kts 101°
2026-04-28 10:45 23.01510 51.30901 36741 ft 498 kts 101°
2026-04-28 10:45 23.00340 51.38310 36736 ft 498 kts 101°
2026-04-28 10:46 22.99167 51.45717 36734 ft 498 kts 101°
2026-04-28 10:46 22.97990 51.53129 36732 ft 498 kts 101°
2026-04-28 10:47 22.96811 51.60531 36734 ft 498 kts 101°
2026-04-28 10:47 22.95628 51.67937 36747 ft 498 kts 101°
2026-04-28 10:48 22.94440 51.75347 36732 ft 498 kts 101°
2026-04-28 10:48 22.93249 51.82756 36735 ft 499 kts 101°
2026-04-28 10:49 22.92054 51.90169 36738 ft 499 kts 101°
2026-04-28 10:49 22.90854 51.97585 36734 ft 500 kts 101°
2026-04-28 10:50 22.89649 52.05011 36748 ft 500 kts 101°
2026-04-28 10:50 22.88439 52.12447 36744 ft 501 kts 101°
2026-04-28 10:51 22.87224 52.19888 36734 ft 501 kts 101°
2026-04-28 10:51 22.86009 52.27312 36744 ft 498 kts 101°
2026-04-28 10:52 22.84796 52.34700 36730 ft 498 kts 101°
2026-04-28 10:52 22.83580 52.42090 36730 ft 498 kts 101°
2026-04-28 10:53 22.82363 52.49479 36744 ft 498 kts 101°
2026-04-28 10:53 22.81404 52.56921 36742 ft 498 kts 97°
2026-04-28 10:54 22.80566 52.64373 36733 ft 498 kts 98°
2026-04-28 10:54 22.79686 52.71810 36738 ft 497 kts 98°
2026-04-28 10:55 22.78785 52.79240 36725 ft 497 kts 98°
2026-04-28 10:55 22.77876 52.86674 36725 ft 497 kts 98°
2026-04-28 10:56 22.76966 52.94094 36742 ft 497 kts 98°
2026-04-28 10:56 22.76053 53.01514 36733 ft 497 kts 98°
2026-04-28 10:57 22.75138 53.08927 36745 ft 496 kts 98°
2026-04-28 10:57 22.74218 53.16340 36747 ft 496 kts 98°
2026-04-28 10:58 22.73297 53.23746 36742 ft 496 kts 98°
2026-04-28 10:58 22.72372 53.31149 36733 ft 496 kts 98°
2026-04-28 10:59 22.71442 53.38560 36733 ft 496 kts 98°
2026-04-28 10:59 22.70510 53.45966 36737 ft 496 kts 98°
2026-04-28 11:00 22.69574 53.53368 36736 ft 496 kts 98°
2026-04-28 11:00 22.68637 53.60769 36751 ft 495 kts 98°
2026-04-28 11:01 22.67698 53.68154 36750 ft 495 kts 98°
2026-04-28 11:01 22.66763 53.75473 36753 ft 495 kts 98°
2026-04-28 11:02 22.65816 53.82853 36739 ft 495 kts 98°
2026-04-28 11:02 22.64859 53.90280 36747 ft 494 kts 98°
2026-04-28 11:03 22.63907 53.97646 36748 ft 494 kts 98°
2026-04-28 11:03 22.62958 54.04962 36741 ft 494 kts 98°
2026-04-28 11:04 22.62000 54.12319 36729 ft 494 kts 98°
2026-04-28 11:04 22.61039 54.19673 36732 ft 493 kts 98°
2026-04-28 11:05 22.60075 54.27016 36744 ft 492 kts 98°
2026-04-28 11:05 22.59110 54.34346 36738 ft 492 kts 98°
2026-04-28 11:06 22.58142 54.41671 36737 ft 491 kts 98°
2026-04-28 11:06 22.57174 54.48980 36738 ft 491 kts 98°
2026-04-28 11:07 22.56200 54.56298 36727 ft 491 kts 98°
2026-04-28 11:07 22.55225 54.63600 36732 ft 491 kts 98°
2026-04-28 11:08 22.54247 54.70904 36732 ft 491 kts 98°
2026-04-28 11:08 22.53265 54.78209 36734 ft 490 kts 98°
2026-04-28 11:09 22.52280 54.85504 36727 ft 490 kts 98°
2026-04-28 11:09 22.51292 54.92801 36738 ft 490 kts 98°
2026-04-28 11:10 22.50302 55.00094 36745 ft 490 kts 98°
2026-04-28 11:10 22.49309 55.07375 36752 ft 490 kts 98°
2026-04-28 11:11 22.48313 55.14658 36749 ft 489 kts 98°
2026-04-28 11:11 22.47315 55.21932 36747 ft 489 kts 98°
2026-04-28 11:12 22.46314 55.29201 36758 ft 489 kts 99°
2026-04-28 11:12 22.46302 55.36506 36745 ft 487 kts 77°
2026-04-28 11:12 22.47203 55.39969 36745 ft 485 kts 66°
2026-04-28 11:13 22.48679 55.43231 36730 ft 482 kts 56°
2026-04-28 11:13 22.52392 55.49308 36744 ft 481 kts 54°
2026-04-28 11:14 22.56059 55.55313 36743 ft 482 kts 54°
2026-04-28 11:14 22.59152 55.60387 36748 ft 482 kts 54°
2026-04-28 11:15 22.62846 55.66454 36752 ft 483 kts 54°
2026-04-28 11:15 22.66545 55.72534 36765 ft 484 kts 54°
2026-04-28 11:16 22.70247 55.78624 36777 ft 484 kts 54°
2026-04-28 11:16 22.73952 55.84727 36780 ft 485 kts 54°
2026-04-28 11:17 22.77662 55.90846 36780 ft 486 kts 54°
2026-04-28 11:17 22.81376 55.96977 36791 ft 487 kts 54°
2026-04-28 11:18 22.85092 56.03119 36794 ft 487 kts 54°
2026-04-28 11:18 22.88810 56.09270 36795 ft 488 kts 54°
2026-04-28 11:19 22.92505 56.15392 36811 ft 488 kts 54°
2026-04-28 11:19 22.96219 56.21552 36813 ft 488 kts 54°
2026-04-28 11:20 22.99933 56.27719 36808 ft 488 kts 54°
2026-04-28 11:20 23.03631 56.33902 36798 ft 487 kts 56°
2026-04-28 11:21 23.07142 56.40190 36813 ft 487 kts 57°
2026-04-28 11:21 23.10638 56.46496 36819 ft 487 kts 56°
2026-04-28 11:22 23.14149 56.52786 36496 ft 487 kts 56°
2026-04-28 11:22 23.15910 56.55938 35873 ft 489 kts 56°
2026-04-28 11:22 23.17682 56.59109 35039 ft 494 kts 55°
2026-04-28 11:22 23.19476 56.62321 34087 ft 501 kts 55°
2026-04-28 11:23 23.21302 56.65581 33051 ft 508 kts 55°
2026-04-28 11:23 23.23159 56.68890 31880 ft 517 kts 55°
2026-04-28 11:23 23.25042 56.72247 30876 ft 522 kts 56°
2026-04-28 11:23 23.26924 56.75611 30277 ft 518 kts 56°
2026-04-28 11:24 23.28793 56.78957 29598 ft 515 kts 56°
2026-04-28 11:24 23.30638 56.82262 28998 ft 509 kts 56°
2026-04-28 11:24 23.32445 56.85548 28397 ft 504 kts 59°
2026-04-28 11:24 23.33929 56.88967 27803 ft 501 kts 67°
2026-04-28 11:25 23.35000 56.92558 27193 ft 497 kts 75°
2026-04-28 11:25 23.35704 56.96211 26601 ft 493 kts 78°
2026-04-28 11:25 23.36371 56.99852 26011 ft 488 kts 78°
2026-04-28 11:25 23.37039 57.03464 25398 ft 484 kts 78°
2026-04-28 11:26 23.37703 57.07052 24785 ft 481 kts 78°
2026-04-28 11:26 23.38423 57.10570 24392 ft 472 kts 76°
2026-04-28 11:26 23.39205 57.14004 23961 ft 464 kts 75°
2026-04-28 11:26 23.39989 57.17380 23550 ft 457 kts 75°
2026-04-28 11:27 23.40754 57.20712 23081 ft 450 kts 75°
2026-04-28 11:27 23.41497 57.23985 22708 ft 440 kts 76°
2026-04-28 11:27 23.42218 57.27201 22313 ft 436 kts 76°
2026-04-28 11:27 23.42933 57.30412 21902 ft 436 kts 76°
2026-04-28 11:28 23.43646 57.33616 21508 ft 434 kts 76°
2026-04-28 11:28 23.44352 57.36799 21129 ft 431 kts 76°
2026-04-28 11:28 23.45052 57.39958 20722 ft 427 kts 76°
2026-04-28 11:28 23.45747 57.43092 20336 ft 425 kts 76°
2026-04-28 11:29 23.46438 57.46211 19966 ft 423 kts 76°
2026-04-28 11:29 23.47124 57.49311 19564 ft 420 kts 77°
2026-04-28 11:29 23.47806 57.52396 19172 ft 417 kts 77°
2026-04-28 11:29 23.48305 57.55492 18811 ft 414 kts 85°
2026-04-28 11:30 23.48418 57.58608 18441 ft 410 kts 91°
2026-04-28 11:30 23.48422 57.64782 17686 ft 405 kts 91°
2026-04-28 11:30 23.48433 57.67837 17318 ft 403 kts 91°
2026-04-28 11:31 23.48444 57.70836 16951 ft 402 kts 91°
2026-04-28 11:31 23.48453 57.73871 16601 ft 399 kts 90°
2026-04-28 11:31 23.48462 57.76925 16227 ft 395 kts 90°
2026-04-28 11:31 23.48470 57.79864 15879 ft 393 kts 90°
2026-04-28 11:32 23.48476 57.82832 15509 ft 390 kts 90°
2026-04-28 11:32 23.48482 57.85758 15162 ft 387 kts 90°
2026-04-28 11:32 23.48487 57.88681 14816 ft 384 kts 90°
2026-04-28 11:32 23.48477 57.91589 14470 ft 384 kts 91°
2026-04-28 11:33 23.48427 57.94493 14103 ft 383 kts 91°
2026-04-28 11:33 23.48366 57.97365 13764 ft 378 kts 91°
2026-04-28 11:33 23.48306 58.00230 13408 ft 377 kts 91°
2026-04-28 11:33 23.48249 58.03080 13058 ft 376 kts 91°
2026-04-28 11:34 23.48195 58.05926 12722 ft 374 kts 91°
2026-04-28 11:34 23.48143 58.08749 12539 ft 369 kts 91°
2026-04-28 11:34 23.48092 58.11493 12434 ft 356 kts 91°
2026-04-28 11:34 23.48044 58.14142 12285 ft 344 kts 91°
2026-04-28 11:35 23.47997 58.16703 12139 ft 333 kts 91°
2026-04-28 11:35 23.47950 58.19201 11781 ft 328 kts 91°
2026-04-28 11:35 23.47902 58.21678 11372 ft 326 kts 90°
2026-04-28 11:35 23.47864 58.24142 10970 ft 324 kts 88°
2026-04-28 11:36 23.48033 58.26585 10563 ft 323 kts 84°
2026-04-28 11:36 23.48243 58.29016 10140 ft 322 kts 84°
2026-04-28 11:36 23.48447 58.31420 9895 ft 314 kts 84°
2026-04-28 11:36 23.48643 58.33769 9616 ft 311 kts 84°
2026-04-28 11:37 23.48841 58.36124 9329 ft 312 kts 84°
2026-04-28 11:37 23.49036 58.38472 9044 ft 310 kts 84°
2026-04-28 11:37 23.49232 58.40813 8762 ft 311 kts 84°
2026-04-28 11:37 23.49426 58.43157 8481 ft 310 kts 84°
2026-04-28 11:38 23.49615 58.45480 8202 ft 307 kts 84°
2026-04-28 11:38 23.49806 58.47800 7932 ft 308 kts 84°
2026-04-28 11:38 23.49995 58.50118 7643 ft 306 kts 83°
2026-04-28 11:38 23.50183 58.52420 7364 ft 306 kts 83°
2026-04-28 11:39 23.50373 58.54729 7087 ft 305 kts 83°
2026-04-28 11:39 23.50561 58.57022 6814 ft 304 kts 83°
2026-04-28 11:39 23.50748 58.59325 6534 ft 306 kts 83°
2026-04-28 11:39 23.50979 58.61615 6258 ft 302 kts 74°
2026-04-28 11:40 23.51838 58.63662 5983 ft 295 kts 47°
2026-04-28 11:40 23.53356 58.65038 5854 ft 276 kts 20°
2026-04-28 11:40 23.55125 58.65468 5748 ft 252 kts 352°
2026-04-28 11:40 23.56804 58.65240 5655 ft 235 kts 345°
2026-04-28 11:41 23.58340 58.64949 5496 ft 213 kts 345°
2026-04-28 11:41 23.59751 58.64700 5230 ft 197 kts 343°
2026-04-28 11:41 23.60907 58.64187 5116 ft 166 kts 319°
2026-04-28 11:41 23.61582 58.63320 5013 ft 138 kts 296°
2026-04-28 11:42 23.61867 58.62359 4713 ft 132 kts 279°
2026-04-28 11:42 23.61914 58.61358 4335 ft 133 kts 271°
2026-04-28 11:42 23.61859 58.60356 3965 ft 132 kts 268°
2026-04-28 11:42 23.61779 58.59365 3814 ft 135 kts 268°
2026-04-28 11:43 23.61701 58.58382 3640 ft 138 kts 268°
2026-04-28 11:43 23.61617 58.57357 3520 ft 139 kts 269°
2026-04-28 11:43 23.61535 58.56312 3351 ft 138 kts 268°
2026-04-28 11:43 23.61452 58.55276 3210 ft 134 kts 268°
2026-04-28 11:44 23.61370 58.54246 3214 ft 139 kts 268°
2026-04-28 11:44 23.61287 58.53212 3125 ft 138 kts 268°
2026-04-28 11:44 23.61203 58.52169 3040 ft 137 kts 268°
2026-04-28 11:44 23.61122 58.51154 2950 ft 136 kts 268°
2026-04-28 11:45 23.61039 58.50097 2766 ft 138 kts 268°
2026-04-28 11:45 23.60957 58.49068 2594 ft 139 kts 268°
2026-04-28 11:45 23.60874 58.48037 2399 ft 140 kts 267°
2026-04-28 11:45 23.60788 58.46978 2229 ft 142 kts 268°
2026-04-28 11:46 23.60703 58.45904 2197 ft 141 kts 266°
2026-04-28 11:46 23.60619 58.44841 2202 ft 139 kts 269°
2026-04-28 11:46 23.60534 58.43777 2195 ft 141 kts 268°
2026-04-28 11:46 23.60449 58.42725 2085 ft 139 kts 269°
2026-04-28 11:47 23.60365 58.41686 1908 ft 136 kts 270°
2026-04-28 11:47 23.60284 58.40656 1744 ft 138 kts 270°
2026-04-28 11:47 23.60197 58.39557 1572 ft 142 kts 271°
2026-04-28 11:47 23.60114 58.38550 1416 ft 131 kts 270°
2026-04-28 11:48 23.60036 58.37527 1267 ft 136 kts 269°
2026-04-28 11:48 23.59952 58.36474 1099 ft 145 kts 270°
2026-04-28 11:48 23.59866 58.35411 924 ft 138 kts 269°
2026-04-28 11:48 23.59781 58.34362 737 ft 141 kts 269°
2026-04-28 11:49 23.59696 58.33285 546 ft 145 kts 268°
2026-04-28 11:49 23.59612 58.32197 371 ft 151 kts 270°
2026-04-28 11:49 23.59519 58.31085 148 ft 143 kts 268°
2026-04-28 11:49 23.59438 58.30038 82 ft 140 kts 268°
2026-04-28 11:50 23.59361 58.29020 42 ft 126 kts 269°
2026-04-28 11:50 23.59300 58.28183 39 ft 89 kts 264°
2026-04-28 11:50 23.59254 58.27659 40 ft 51 kts 264°
2026-04-28 11:50 23.59225 58.27340 40 ft 42 kts 264°
2026-04-28 11:51 23.59195 58.27037 43 ft 35 kts 261°
2026-04-28 11:51 23.59181 58.26898 42 ft 3 kts 265°
2026-04-28 11:51 23.59177 58.26851 42 ft 9 kts 265°
2026-04-28 11:51 23.59172 58.26761 42 ft 14 kts 269°
2026-04-28 11:52 23.59233 58.26689 42 ft 16 kts 352°
2026-04-28 11:52 23.59359 58.26679 41 ft 22 kts 354°
2026-04-28 11:52 23.59470 58.26759 41 ft 22 kts 86°
2026-04-28 11:52 23.59485 58.26934 41 ft 24 kts 84°
2026-04-28 11:53 23.59503 58.27125 40 ft 26 kts 84°
2026-04-28 11:53 23.59527 58.27330 39 ft 27 kts 82°
2026-04-28 11:53 23.59538 58.27536 40 ft 28 kts 88°
2026-04-28 11:53 23.59551 58.27754 40 ft 30 kts 83°
2026-04-28 11:54 23.59569 58.27983 39 ft 31 kts 85°
2026-04-28 11:54 23.59590 58.28222 39 ft 32 kts 85°
2026-04-28 11:54 23.59608 58.28437 38 ft 5 kts 88°
2026-04-28 11:54 23.59617 58.28477 37 ft 15 kts 66°
2026-04-28 11:55 23.59731 58.28517 38 ft 19 kts 13°
2026-04-28 11:55 23.59762 58.28580 38 ft 7 kts 101°
2026-04-28 11:55 23.59762 58.28622 38 ft 0 kts 81°